Regional Weather Roundup
Issued by NWS

Home | Current Version | Previous Version | Graphics & Text | Print | Product List | Glossary On
Versions: 1 2 3 4 5 6 7 8 9 10 11 12 13 14 15 16 17 18 19 20 21 22 23 24 25 26 27
000
ASUS45 KBOU 262207
RWRCO

WEATHER ROUNDUP FOR COLORADO
NATIONAL WEATHER SERVICE DENVER/BOULDER CO
400 PM MDT FRI AUG 26 2016

NOTE: "FAIR" INDICATES FEW OR NO CLOUDS BELOW 12000 FEET WITH NO
SIGNIFICANT WEATHER AND/OR OBSTRUCTIONS TO VISIBILITY.

COZ001>005-013-030-031-262300-
...NORTHWEST COLORADO...

CITY           SKY/WX    TMP DP  RH WIND       PRES   REMARKS
CRAIG          FAIR      72  35  25 S23G29    30.11F
HAYDEN         FAIR      70  32  24 SW13G20   30.15F
MEEKER         PTSUNNY   66  47  50 VRB7      30.16F
MOUNT WERNER   NOT AVBL
STEAMBOAT SPGS FAIR      68  32  26 SE10G17   30.18S
WALDEN         FAIR      66  23  19 W15       30.23F
$$

COZ006>008-011-262300-
...WEST CENTRAL VALLEYS...

CITY           SKY/WX    TMP DP  RH WIND       PRES   REMARKS
GRAND JUNCTION FAIR      77  48  35 VRB3      30.07F
MONTROSE       FAIR      76  41  28 NE6       30.13F
EAGLE          MOSUNNY   73  34  23 SW13G25   30.17F
RIFLE          FAIR      78  42  27 W17G28    30.09F
DELTA          FAIR      83  39  21 S7        30.09F
NUCLA          FAIR     N/A N/A N/A SW8       30.19F
$$

COZ017>023-064>068-262300-
...SOUTHWEST COLORADO...

CITY           SKY/WX    TMP DP  RH WIND       PRES   REMARKS
DURANGO        FAIR      70  42  36 VRB3      30.21F
CORTEZ         FAIR      73  47  39 W9        30.17F
PAGOSA SPRINGS FAIR      62  46  56 N10       30.29F
TELLURIDE      LGT RAIN  54  44  70 SE8       30.38S
WOLF CREEK PAS FOG       37  37 100 SW20      30.54F THUNDER VSB 1/4
$$

COZ009-010-012-014-032>034-037-058>063-262300-
...CENTRAL COLORADO...

CITY           SKY/WX    TMP DP  RH WIND       PRES   REMARKS
ASPEN          FAIR      62  39  42 VRB5      30.25F
BUENA VISTA    PTSUNNY   64  32  29 W14       30.24F
COPPER MTN     PTSUNNY   45  32  61 CALM      30.50R
BERTHOUD PASS  PTSUNNY   34  23  64 N12       30.51R WCI  25
COTTONWOOD PAS PTSUNNY   61  32  33 NW9       30.36F
GUNNISON       FAIR      64  37  36 N8        30.26F
KREMMLING      FAIR      61  36  39 SW7G17    30.24F
LEADVILLE      CLOUDY    55  28  35 W15       30.37R
MONARCH PASS   FAIR      50  30  46 W24       30.59F
SALIDA         FAIR      67  35  31 CALM      30.29F
SUNLIGHT       PTSUNNY   54  43  66 NE3       30.46S
WILKERSON PASS FAIR      55  32  41 CALM      30.47S
$$

COZ069>075-262300-
...SAN LUIS VALLEY/SANGRE DE CRISTO MOUNTAINS...

CITY           SKY/WX    TMP DP  RH WIND       PRES   REMARKS
ALAMOSA        CLOUDY    65  39  38 VRB5      30.24F
LA VETA PASS   FAIR      61  36  39 S8        30.39S
SAGUACHE       FAIR      68  37  32 SW8       30.25F
$$

COZ035-036-038>040-262300-
...NORTHERN COLORADO FRONT RANGE...

CITY           SKY/WX    TMP DP  RH WIND       PRES   REMARKS
DENVER INTL AP PTSUNNY   79  38  22 N5        30.06F
DMNS CITY PARK   N/A     78  38  23 W1        30.05F
AURORA         MOSUNNY   77  38  24 CALM      30.08F
FRONT RANGE AP PTSUNNY   79  37  22 SW6       30.08F
ERIE MUNI ARPT PTSUNNY   79  43  27 N16       30.05F
BOULDER MUN AP FAIR      77  41  27 N5        30.05F
CENTENNIAL     PTSUNNY   75  36  24 SW7       30.09F
BROOMFIELD     PTSUNNY   77  41  27 S6        30.09S
FORT COLLINS   FAIR      77  43  29 S10G16    30.02F
LONGMONT       FAIR      81  45  28 E6        30.05F
$$

COZ041-046-047-076>085-087-088-262300-
...PIKES PEAK/PALMER DIVIDE AND SOUTHERN FOOTHILLS...

CITY           SKY/WX    TMP DP  RH WIND       PRES   REMARKS
COLO. SPRINGS  PTSUNNY   71  46  40 S8        30.15S THUNDER
A. F. ACADEMY  MOSUNNY   68  48  49 SE1       30.15F
SCHRIEVER AFB  NOT AVBL
ELLICOTT       NOT AVBL
FALCON         LGT RAIN  61  40  46 NE7       30.20R
FORT CARSON    PTSUNNY   64  50  59 E5        30.12S THUNDER
LIMON          FAIR      74  45  35 SE13      30.09F
MONUMENT HILL  FAIR      68  36  30 SE7       30.19F
TRINIDAD       PTSUNNY   74  47  38 SE6       30.12F
$$

COZ042>045-048>051-090-091-262300-
...NORTHEAST COLORADO...

CITY           SKY/WX    TMP DP  RH WIND       PRES   REMARKS
GREELEY ARPT   FAIR      75  46  35 SE7       30.04F
AKRON          FAIR      71  53  52 E9        30.06F
BURLINGTON     FAIR      76  53  44 SE20      30.04F
WRAY           NOT AVBL
STERLING       FAIR      77  54  44 E7        30.04R
HOLYOKE        TSTM      61  57  88 E5        30.07S
FORT MORGAN    FAIR      77  44  31 E8        30.05S
$$

COZ086-089-092>099-262300-
...SOUTHEAST COLORADO...

CITY           SKY/WX    TMP DP  RH WIND       PRES   REMARKS
PUEBLO         FAIR      81  45  28 VRB3      30.03F
LA JUNTA       FAIR      80  50  34 SW6       30.03F
LAMAR          FAIR      84  50  30 SW8       29.99F
SPRINGFIELD      N/A     77  54  44 S9        30.05F
$$




USA.gov is the U.S. government's official web portal to all federal, state and local government web resources and services.